Location: Arrakis Observatory
(44.1122°N, 95.7153°W)
Time: 03:24:35
(UTC-05:00)

Amateur Radio Satellites - All Passes

Search period start: 25 April 2014 02:54
Search period end: 26 April 2014 02:54
Location: Arrakis Observatory, 44.1122°N, 95.7153°W

Satellite Date Start Highest point End Downlink Frequencies (MHz)
Time Altitude Azimuth
AO-Echo 25 Apr 02:59:29 03:03:29 27° 95° (E) 03:07:25 ?
Uribyol 2 25 Apr 03:01:11 03:06:00 38° 98° (E) 03:10:48 436.500 FM
TMSAT-1 25 Apr 03:18:02 03:20:02 12° 87° (E) 03:22:02 436.925 FM
JAS-1B 25 Apr 03:41:58 03:42:50 10° 87° (E) 03:43:41 435.800 - 435.900 CW/SSB
OPAL 25 Apr 03:42:49 03:47:42 48° 258° (WSW) 03:52:40 ?
AO-27 25 Apr 03:44:24 03:49:37 89° 104° (ESE) 03:54:48 436.795 MHz FM
Oscar 19 25 Apr 03:44:39 03:49:42 51° 290° (WNW) 03:54:42 437.125 CW, 437.150 USB
ITAMSAT 1 25 Apr 03:53:30 03:58:41 78° 286° (WNW) 04:03:52 435.822 SSB
Oscar 16 25 Apr 03:54:12 03:59:02 40° 292° (WNW) 04:03:50 437.025 USB, Beacon 2401.1428
Gurwin Techsat 1B 25 Apr 04:11:10 04:16:22 52° 100° (E) 04:21:31 435.225 FM
AO-7 25 Apr 04:32:41 04:38:28 20° 90° (E) 04:44:13 29.400 - 29.500 MHz
AO-Echo 25 Apr 04:38:03 04:42:20 34° 292° (WNW) 04:46:32 ?
KITSAT 1 25 Apr 04:39:27 04:46:32 32° 322° (NW) 04:53:40 435.175 FM
Uribyol 2 25 Apr 04:40:54 04:45:21 30° 295° (WNW) 04:49:48 436.500 FM
TMSAT-1 25 Apr 04:55:21 05:00:40 88° 285° (WNW) 05:05:58 436.925 FM
Uosat F 25 Apr 05:01:29 05:06:09 38° 98° (E) 05:10:48 435.120 FM
AO-27 25 Apr 05:25:50 05:28:24 14° 303° (WNW) 05:30:57 436.795 MHz FM
JAS-1B 25 Apr 05:28:40 05:34:22 84° 105° (ESE) 05:40:30 435.800 - 435.900 CW/SSB
ITAMSAT 1 25 Apr 05:35:30 05:37:20 12° 304° (NW) 05:39:09 435.822 SSB
Gurwin Techsat 1B 25 Apr 05:51:53 05:55:59 23° 298° (WNW) 06:00:04 435.225 FM
MaSat-1 25 Apr 05:53:58 05:56:54 43° 61° (ENE) 06:00:21 437.345 MHz
RS-15 25 Apr 05:55:17 06:05:40 44° 110° (ESE) 06:15:45 29.354 - 29.394 USB, Beacon 29.352 USB
AO-7 25 Apr 06:23:53 06:32:16 88° 289° (WNW) 06:40:37 29.400 - 29.500 MHz
STRAND 1 25 Apr 06:31:13 06:35:56 39° 68° (ENE) 06:40:39 ?
TMSAT-1 25 Apr 06:37:15 06:39:49 14° 303° (WNW) 06:42:24 436.925 FM
KITSAT 1 25 Apr 06:40:29 06:45:01 16° 351° (N) 06:49:34 435.175 FM
Uosat F 25 Apr 06:40:36 06:44:48 28° 295° (WNW) 06:48:59 435.120 FM
Hamsat 25 Apr 06:58:22 07:02:08 27° 95° (E) 07:05:53 145.90 MHz
JAS-2 25 Apr 07:14:38 07:18:22 18° 92° (E) 07:22:19 435.800 - 435.900 CW/SSB, 435.910 FM
Sapphire 25 Apr 07:19:59 07:23:39 18° 38° (NE) 07:27:17 437.095 MHz 1200 baud AX-25 AFSK
JAS-1B 25 Apr 07:21:19 07:24:24 15° 304° (WNW) 07:27:32 435.800 - 435.900 CW/SSB
MaSat-1 25 Apr 07:33:55 07:35:04 11° 251° (WSW) 07:36:16 437.345 MHz
PCSat 25 Apr 08:03:40 08:08:36 34° 48° (NE) 08:13:31 145.825 MHz
RS-15 25 Apr 08:06:36 08:17:41 61° 313° (NW) 08:28:32 29.354 - 29.394 USB, Beacon 29.352 USB
STRAND 1 25 Apr 08:10:55 08:15:13 27° 265° (W) 08:19:32 ?
AO-40 25 Apr 08:15:58 08:49:42 11° 120° (ESE) 09:17:32 Beacon 2401.320
AO-7 25 Apr 08:17:54 08:24:00 24° 310° (NW) 08:30:08 29.400 - 29.500 MHz
Hamsat 25 Apr 08:34:18 08:38:05 29° 292° (WNW) 08:41:52 145.90 MHz
KITSAT 1 25 Apr 08:38:42 08:44:16 19° 22° (NNE) 08:49:47 435.175 FM
SO-67 25 Apr 08:55:18 08:58:48 70° 284° (WNW) 09:02:17 435.3500 MHz FM
JAS-2 25 Apr 08:58:21 09:03:52 70° 287° (WNW) 09:10:01 435.800 - 435.900 CW/SSB, 435.910 FM
Sapphire 25 Apr 09:02:27 09:07:55 84° 59° (ENE) 09:13:20 437.095 MHz 1200 baud AX-25 AFSK
Saudisat 1A 25 Apr 09:30:32 09:34:04 23° 113° (ESE) 09:37:37 436.775 MHz
Oscar 10/S400 25 Apr 09:31:49 10:52:00 60° 206° (SSW) 18:33:45 145.825 - 145.975 CW/USB, Beacon 145.810 USB
HO-68 25 Apr 09:44:42 09:50:53 30° 95° (E) 09:57:01 435.675 MHz FM
PCSat 25 Apr 09:47:02 09:52:06 41° 247° (WSW) 09:57:08 145.825 MHz
RS-15 25 Apr 10:23:50 10:32:53 28° 344° (NNW) 10:41:52 29.354 - 29.394 USB, Beacon 29.352 USB
Oscar 11 25 Apr 10:30:31 10:34:10 26° 95° (E) 10:37:49 145.825 FM, Beacon 2401.500 USB
KITSAT 1 25 Apr 10:33:58 10:41:51 51° 48° (NE) 10:49:39 435.175 FM
FUNcube-1 25 Apr 10:41:30 10:42:37 11° 89° (E) 10:43:45 145.950 - 145.970 MHz USB
JAS-2 25 Apr 10:46:39 10:48:09 11° 304° (NW) 10:49:42 435.800 - 435.900 CW/SSB, 435.910 FM
Sapphire 25 Apr 10:47:47 10:50:35 14° 257° (WSW) 10:53:23 437.095 MHz 1200 baud AX-25 AFSK
Saudisat 1A 25 Apr 11:09:09 11:13:26 44° 311° (NW) 11:17:44 436.775 MHz
HO-68 25 Apr 11:31:55 11:38:54 57° 293° (WNW) 11:45:53 435.675 MHz FM
Oscar 11 25 Apr 12:06:31 12:10:23 31° 291° (WNW) 12:14:14 145.825 FM, Beacon 2401.500 USB
FUNcube-1 25 Apr 12:15:12 12:19:31 74° 285° (WNW) 12:23:55 145.950 - 145.970 MHz USB
KITSAT 1 25 Apr 12:29:39 12:37:08 43° 249° (WSW) 12:44:35 435.175 FM
RS-15 25 Apr 12:40:42 12:49:52 29° 19° (NNE) 12:59:04 29.354 - 29.394 USB, Beacon 29.352 USB
Saudisat 1A 25 Apr 12:53:25 12:54:11 10° 332° (NNW) 12:54:57 436.775 MHz
ISS 25 Apr 13:08:17 13:10:51 21° 135° (SE) 13:13:25 145.800 FM
HO-68 25 Apr 13:22:16 13:25:07 13° 314° (NW) 13:27:58 435.675 MHz FM
Oscar 19 25 Apr 13:24:16 13:28:57 36° 67° (ENE) 13:33:39 437.125 CW, 437.150 USB
AO-27 25 Apr 13:26:20 13:30:15 22° 62° (ENE) 13:34:11 436.795 MHz FM
SO-50 25 Apr 13:32:44 13:34:53 13° 109° (ESE) 13:37:02 436.795 FM
Oscar 16 25 Apr 13:33:28 13:38:22 46° 70° (ENE) 13:43:18 437.025 USB, Beacon 2401.1428
ITAMSAT 1 25 Apr 13:34:57 13:39:08 26° 64° (ENE) 13:43:20 435.822 SSB
Gurwin Techsat 1B 25 Apr 13:57:07 13:59:52 14° 57° (ENE) 14:02:38 435.225 FM
AO-Echo 25 Apr 14:13:26 14:18:17 44° 70° (ENE) 14:23:02 ?
Uribyol 2 25 Apr 14:20:31 14:25:37 66° 72° (ENE) 14:30:45 436.500 FM
JAS-1B 25 Apr 14:28:16 14:32:10 16° 57° (ENE) 14:35:48 435.800 - 435.900 CW/SSB
TMSAT-1 25 Apr 14:39:22 14:43:29 24° 63° (ENE) 14:47:37 436.925 FM
ISS 25 Apr 14:44:01 14:47:18 59° 333° (NNW) 14:50:38 145.800 FM
RS-15 25 Apr 14:53:50 15:04:45 67° 49° (NE) 15:15:53 29.354 - 29.394 USB, Beacon 29.352 USB
Oscar 19 25 Apr 15:03:50 15:08:19 30° 265° (W) 15:12:52 437.125 CW, 437.150 USB
AO-27 25 Apr 15:04:22 15:09:25 53° 260° (W) 15:14:29 436.795 MHz FM
SO-50 25 Apr 15:10:21 15:14:50 74° 306° (NW) 15:19:22 436.795 FM
ITAMSAT 1 25 Apr 15:13:28 15:18:24 44° 261° (W) 15:23:21 435.822 SSB
Oscar 16 25 Apr 15:13:53 15:17:56 23° 267° (W) 15:22:02 437.025 USB, Beacon 2401.1428
AO-7 25 Apr 15:33:08 15:40:20 35° 56° (ENE) 15:47:32 29.400 - 29.500 MHz
Gurwin Techsat 1B 25 Apr 15:33:47 15:39:06 88° 255° (WSW) 15:44:27 435.225 FM
OPAL 25 Apr 15:51:04 15:55:58 39° 100° (E) 16:00:50 ?
AO-Echo 25 Apr 15:53:03 15:57:12 24° 266° (W) 16:01:18 ?
Uribyol 2 25 Apr 16:02:26 16:05:35 16° 270° (W) 16:08:45 436.500 FM
JAS-1B 25 Apr 16:14:34 16:22:10 84° 74° (ENE) 16:28:32 435.800 - 435.900 CW/SSB
Uosat F 25 Apr 16:16:08 16:21:05 63° 72° (ENE) 16:26:03 435.120 FM
TMSAT-1 25 Apr 16:17:58 16:23:05 50° 261° (W) 16:28:15 436.925 FM
ISS 25 Apr 16:21:44 16:24:30 23° 352° (N) 16:27:16 145.800 FM
SO-50 25 Apr 16:53:41 16:56:12 15° 327° (NNW) 16:58:46 436.795 FM
UOSAT-12 25 Apr 16:55:33 17:00:06 76° 123° (ESE) 17:04:46 437.025 FM, 437.400 FM
RS-15 25 Apr 17:06:47 17:16:29 39° 252° (WSW) 17:26:27 29.354 - 29.394 USB, Beacon 29.352 USB
Gurwin Techsat 1B 25 Apr 17:18:06 17:19:49 12° 273° (W) 17:21:33 435.225 FM
AO-7 25 Apr 17:24:33 17:32:41 61° 256° (WSW) 17:40:54 29.400 - 29.500 MHz
OPAL 25 Apr 17:30:13 17:34:42 30° 297° (WNW) 17:39:11 ?
Hamsat 25 Apr 17:53:42 17:57:06 24° 67° (ENE) 18:00:33 145.90 MHz
Saudisat 1A 25 Apr 17:55:13 17:59:13 32° 45° (NE) 18:03:10 436.775 MHz
Uosat F 25 Apr 17:57:10 18:00:18 16° 269° (W) 18:03:26 435.120 FM
ISS 25 Apr 17:59:03 18:01:56 26° 13° (NNE) 18:04:50 145.800 FM
JAS-1B 25 Apr 18:08:42 18:13:17 17° 268° (W) 18:17:29 435.800 - 435.900 CW/SSB
UOSAT-12 25 Apr 18:37:25 18:40:48 20° 323° (NW) 18:44:14 437.025 FM, 437.400 FM
STRAND 1 25 Apr 18:42:45 18:44:09 11° 88° (E) 18:45:32 ?
JAS-2 25 Apr 19:12:41 19:18:04 57° 72° (ENE) 19:23:09 435.800 - 435.900 CW/SSB, 435.910 FM
AO-7 25 Apr 19:25:40 19:27:10 11° 276° (W) 19:28:41 29.400 - 29.500 MHz
Hamsat 25 Apr 19:29:09 19:32:57 32° 264° (W) 19:36:48 145.90 MHz
SO-67 25 Apr 19:30:17 19:33:38 46° 74° (ENE) 19:37:01 435.3500 MHz FM
Saudisat 1A 25 Apr 19:34:51 19:38:49 33° 244° (WSW) 19:42:44 436.775 MHz
ISS 25 Apr 19:35:38 19:38:59 88° 31° (NNE) 19:42:20 145.800 FM
MaSat-1 25 Apr 20:00:16 20:01:00 11° 109° (ESE) 20:01:44 437.345 MHz
HO-68 25 Apr 20:15:28 20:21:18 28° 58° (ENE) 20:27:09 435.675 MHz FM
STRAND 1 25 Apr 20:18:55 20:24:03 90° 106° (ESE) 20:29:09 ?
JAS-2 25 Apr 20:59:49 21:03:34 18° 268° (W) 21:07:10 435.800 - 435.900 CW/SSB, 435.910 FM
SO-67 25 Apr 21:05:59 21:07:04 11° 270° (W) 21:08:08 435.3500 MHz FM
ISS 25 Apr 21:13:34 21:15:16 13° 228° (SW) 21:16:57 145.800 FM
Oscar 11 25 Apr 21:27:19 21:30:51 25° 67° (ENE) 21:34:23 145.825 FM, Beacon 2401.500 USB
MaSat-1 25 Apr 21:36:57 21:39:07 22° 303° (WNW) 21:41:11 437.345 MHz
FUNcube-1 25 Apr 21:40:28 21:41:40 11° 60° (ENE) 21:42:53 145.950 - 145.970 MHz USB
STRAND 1 25 Apr 22:00:06 22:02:30 14° 303° (WNW) 22:04:54 ?
SO-50 25 Apr 22:00:36 22:04:24 24° 41° (NE) 22:08:13 436.795 FM
HO-68 25 Apr 22:01:25 22:08:30 65° 257° (WSW) 22:15:38 435.675 MHz FM
PCSat 25 Apr 22:48:18 22:52:12 21° 106° (ESE) 22:56:07 145.825 MHz
Oscar 11 25 Apr 23:03:03 23:06:55 32° 264° (W) 23:10:49 145.825 FM, Beacon 2401.500 USB
FUNcube-1 25 Apr 23:13:20 23:17:30 76° 258° (WSW) 23:21:40 145.950 - 145.970 MHz USB
SO-50 25 Apr 23:40:43 23:45:16 55° 240° (WSW) 23:49:52 436.795 FM
UOSAT-12 25 Apr 23:44:30 23:47:50 19° 36° (NE) 23:51:09 437.025 FM, 437.400 FM
Sapphire 25 Apr 23:45:36 23:50:53 58° 116° (ESE) 23:56:13 437.095 MHz 1200 baud AX-25 AFSK
HO-68 25 Apr 23:56:22 23:57:33 10° 276° (W) 23:58:44 435.675 MHz FM
PCSat 26 Apr 00:29:47 00:35:08 62° 304° (NW) 00:40:32 145.825 MHz
KITSAT 1 26 Apr 01:05:31 01:11:48 26° 105° (ESE) 01:18:07 435.175 FM
UOSAT-12 26 Apr 01:23:52 01:28:37 85° 237° (WSW) 01:33:18 437.025 FM, 437.400 FM
Sapphire 26 Apr 01:30:09 01:34:41 26° 316° (NW) 01:39:14 437.095 MHz 1200 baud AX-25 AFSK
OPAL 26 Apr 01:32:13 01:34:25 13° 54° (NE) 01:36:39 ?
Oscar 19 26 Apr 01:36:54 01:38:09 11° 87° (E) 01:39:24 437.125 CW, 437.150 USB
Oscar 16 26 Apr 01:45:06 01:47:56 15° 89° (E) 01:50:45 437.025 USB, Beacon 2401.1428
PCSat 26 Apr 02:16:48 02:19:42 14° 326° (NW) 02:22:36 145.825 MHz
AO-Echo 26 Apr 02:21:56 02:23:00 11° 88° (E) 02:24:04 ?
Uribyol 2 26 Apr 02:32:33 02:36:26 21° 92° (E) 02:40:18 436.500 FM
